This is the latest recevied weather packets stored in our database for station/object N2UFM. If no packets are shown the sender has not sent any weather packets the latest 10 day(s).
| Time | Temp. | Humidity | Pressure | Rain* | Wind** | Luminosity | Snow |
|---|---|---|---|---|---|---|---|
| 1778069705 | 19.44° C | 73% | 1010.8 hPa | 0 mm | - | - | - |
| 1778069405 | 19.44° C | 73% | 1010.8 hPa | 0 mm | - | - | - |
| 1778069105 | 19.44° C | 73% | 1010.9 hPa | 0 mm | - | - | - |
| 1778068804 | 20° C | 73% | 1011 hPa | 0 mm | - | - | - |
| 1778068504 | 20° C | 73% | 1011.1 hPa | 0 mm | - | - | - |
| 1778068204 | 20° C | 73% | 1011 hPa | 0 mm | - | - | - |
| 1778067904 | 20° C | 73% | 1010.8 hPa | 0 mm | - | - | - |
| 1778067604 | 19.44° C | 74% | 1011.1 hPa | 0 mm | - | - | - |
| 1778067304 | 19.44° C | 75% | 1011.1 hPa | 0 mm | - | - | - |
| 1778067003 | 18.89° C | 77% | 1011.1 hPa | 0 mm | - | - | - |
| 1778066703 | 18.33° C | 77% | 1011 hPa | 0 mm | - | - | - |
| 1778066403 | 18.33° C | 78% | 1011.2 hPa | 0 mm | - | - | - |
| 1778066103 | 18.33° C | 78% | 1011 hPa | 0 mm | - | - | - |
| 1778065803 | 18.33° C | 79% | 1011.1 hPa | 0 mm | - | - | - |
| 1778065503 | 17.78° C | 79% | 1011 hPa | 0 mm | - | - | - |
| 1778065203 | 17.78° C | 80% | 1010.9 hPa | 0 mm | - | - | - |
| 1778064902 | 17.78° C | 81% | 1011 hPa | 0 mm | - | - | - |
| 1778064602 | 17.22° C | 81% | 1010.9 hPa | 0 mm | - | - | - |
| 1778064302 | 17.22° C | 81% | 1011 hPa | 0 mm | - | - | - |
| 1778064002 | 17.22° C | 81% | 1011.1 hPa | 0 mm | - | - | - |
| 1778063702 | 17.22° C | 81% | 1011 hPa | 0 mm | - | - | - |
| 1778063402 | 17.22° C | 81% | 1011 hPa | 0 mm | - | - | - |
| 1778063102 | 17.22° C | 82% | 1010.9 hPa | 0 mm | - | - | - |
| 1778062801 | 17.22° C | 82% | 1011 hPa | 0 mm | - | - | - |
| 1778062501 | 17.22° C | 82% | 1010.8 hPa | 0 mm | - | - | - |
* Rain latest hour (hover to see other rain measurements)
** Current wind speed in m/s (hover to see current wind gust speed)